ECMWFFLT2_sfc_temp_240.txt.gz
Temp
62 62 63 63 64 65 66 66 67 67 67 67 68 69 69 69 69 69 70 70 71 71 71 71 71 71 71 71 71 71 71 71 71 71 71 72 72 72 72 71 71 69 69 68 68 66 64 63 62 62 62 62
61 61 62 62 63 63 64 65 65 65 65 66 66 66 66 66 67 68 69 69 70 70 70 70 69 69 70 71 71 71 71 71 71 71 71 71 72 72 71 71 69 67 68 67 66 65 64 62 61 61 61 61
60 60 60 61 62 62 63 63 63 63 63 63 62 62 63 64 65 65 66 66 67 69 69 68 68 67 70 71 71 71 71 71 71 71 71 71 71 71 71 69 67 66 67 66 65 64 62 61 61 61 60 59
60 60 59 60 61 61 61 61 61 61 61 61 61 61 61 62 63 64 64 65 66 66 66 66 66 65 68 70 71 71 70 70 71 71 70 70 71 71 69 68 66 65 66 65 63 62 61 60 60 59 57 59
59 59 59 59 59 59 59 60 59 60 60 60 61 61 61 61 62 63 64 65 65 64 64 65 64 64 65 69 70 70 69 69 70 70 70 70 70 69 67 65 64 63 64 63 62 61 60 59 58 57 57 57
57 57 58 58 57 57 58 58 57 59 60 59 62 61 62 62 62 63 64 64 61 64 64 64 63 63 64 68 69 69 69 68 69 70 69 69 69 66 65 63 60 60 62 62 61 59 58 57 56 55 55 55
56 56 56 55 55 55 56 56 56 57 57 58 60 61 62 62 63 63 63 64 63 63 63 64 62 62 63 66 68 68 68 67 67 68 68 68 68 65 63 61 57 56 57 57 59 58 56 55 55 55 55 54
54 54 54 53 53 53 54 54 55 55 55 56 56 57 60 61 62 63 63 60 58 58 63 63 61 61 61 63 64 65 66 66 65 65 67 66 66 64 61 57 55 54 54 54 53 53 53 52 53 53 53 52
52 52 52 52 51 52 52 51 52 52 53 53 54 55 56 57 60 62 62 63 63 62 63 63 63 61 61 61 63 60 61 60 61 61 62 63 61 57 56 55 54 53 52 52 53 52 51 51 51 51 51 51
51 51 50 49 49 50 50 50 50 50 51 51 52 53 54 55 57 60 61 61 62 62 62 62 62 61 60 60 58 57 58 58 58 57 56 54 53 53 53 53 53 53 52 51 51 51 51 50 49 48 48 49
50 49 49 48 48 47 47 48 48 48 49 49 50 51 52 52 54 56 58 59 60 60 60 59 59 58 58 58 55 56 56 53 52 51 51 51 51 51 51 51 50 50 50 50 49 48 48 48 47 46 46 46
48 47 47 47 47 47 47 46 46 46 47 48 48 49 50 51 53 54 55 57 57 58 58 56 55 55 55 54 54 53 53 51 51 50 50 50 49 49 48 48 48 47 47 47 47 46 46 45 45 45 44 44
46 46 46 45 45 44 45 44 44 45 46 46 46 47 48 49 50 52 53 53 54 55 55 54 53 53 53 53 52 52 51 51 50 49 48 48 47 47 46 46 45 45 44 44 43 43 42 42 41 41 41 41
44 44 43 43 43 43 44 43 43 44 43 44 44 45 46 47 48 49 50 51 52 53 52 52 52 52 51 51 51 51 50 50 49 48 47 47 47 47 46 45 44 44 43 42 42 42 41 40 40 40 39 39
43 43 42 42 42 42 41 42 42 42 42 42 42 43 44 45 46 47 49 49 50 51 51 51 51 51 51 50 50 49 48 48 48 48 48 48 47 46 46 45 44 45 43 42 42 41 41 40 40 39 39 38
42 41 41 41 41 40 40 41 40 40 40 40 41 42 42 43 44 45 46 47 49 49 50 50 50 50 50 49 49 49 48 47 47 47 47 47 46 45 45 44 43 43 41 40 40 40 39 39 38 38 37 37
42 41 41 40 39 39 39 39 39 38 38 39 39 40 41 41 42 43 44 45 47 48 49 49 49 49 49 49 48 48 48 47 47 46 46 45 45 44 43 42 41 41 40 39 38 38 37 37 36 36 36 35
41 41 40 40 39 38 38 38 37 37 37 38 38 39 39 39 41 41 42 43 44 47 48 48 48 48 48 48 48 48 47 46 46 45 45 44 44 43 42 40 40 39 37 37 37 36 36 36 35 35 34 34
42 41 40 39 38 38 37 37 36 36 37 37 37 37 37 38 39 39 40 41 42 45 46 46 47 47 47 48 48 47 47 46 46 45 44 44 43 42 41 40 39 38 37 36 35 35 35 34 35 34 33 33
42 41 40 39 39 37 37 36 35 35 35 36 36 36 36 36 37 37 38 39 40 42 43 44 45 46 47 47 47 47 46 46 45 45 44 43 43 40 39 38 37 37 35 35 34 35 34 34 34 33 32 32
41 41 40 39 38 37 37 35 35 35 35 35 34 35 34 35 36 36 36 37 38 40 41 42 43 44 45 46 46 46 45 45 44 44 43 42 42 41 39 37 36 35 35 34 34 34 33 33 33 32 32 32
39 40 40 39 38 37 36 36 35 35 34 33 33 33 33 34 34 34 35 35 36 38 39 40 41 42 43 44 45 45 44 44 44 43 42 40 40 40 39 37 35 34 34 33 32 32 32 32 32 31 31 31
39 39 40 39 38 37 36 36 35 35 33 33 33 32 32 32 33 33 34 34 35 36 37 38 39 40 41 42 43 43 43 43 43 42 42 40 38 38 38 37 35 34 33 32 31 30 31 31 31 31 31 30
36 36 36 36 36 36 35 35 34 34 33 33 32 32 32 31 32 32 32 33 34 34 35 35 36 37 39 39 41 42 42 41 41 41 40 39 38 36 36 36 34 34 32 31 31 30 30 30 30 30 30 29
34 33 33 33 33 32 33 33 33 33 33 32 32 31 31 30 30 31 31 31 32 33 33 34 35 36 36 38 38 39 39 40 40 40 39 38 38 36 34 34 34 34 34 32 30 31 30 29 30 30 30 28
35 34 33 32 33 32 32 31 31 30 32 32 32 31 30 30 30 30 30 30 31 32 31 31 32 33 34 35 36 37 38 38 38 39 38 38 36 37 35 33 34 33 36 34 32 30 30 30 29 29 28 28
34 35 34 33 33 32 31 32 33 32 32 32 31 30 30 29 29 29 29 29 29 30 30 30 30 31 32 33 34 35 36 36 35 35 35 35 34 34 34 33 35 33 34 33 33 33 33 32 31 30 27 28
34 34 34 33 33 33 31 30 32 31 31 30 30 28 28 28 27 27 27 27 27 29 29 29 29 30 31 32 32 33 34 35 35 35 34 34 34 34 33 33 32 34 33 33 35 33 33 33 33 32 30 26
33 33 31 30 30 30 30 29 28 29 28 27 28 27 26 25 25 25 25 25 25 26 27 28 28 28 30 31 31 32 32 32 33 34 34 34 34 33 33 33 33 33 33 33 32 33 32 31 30 32 28 26
31 31 30 30 29 28 28 27 27 26 25 26 26 24 24 24 24 23 23 23 23 24 26 25 26 26 28 29 30 31 31 31 31 32 32 33 34 33 33 33 33 32 34 33 33 32 32 32 32 31 28 31
29 29 30 29 29 29 28 27 28 28 29 27 28 25 22 22 22 22 22 22 22 22 23 24 24 24 25 26 27 29 29 29 29 30 31 32 33 33 34 33 32 32 32 33 33 32 32 32 31 32 30 28

ECMWFFLT2_sfc_temp_246.txt.gz
Temp
60 60 60 60 61 62 62 62 62 62 62 61 62 62 62 63 64 65 66 67 67 68 68 68 67 70 70 70 70 71 71 72 72 72 72 72 73 73 73 72 72 72 71 70 68 68 66 65 63 63 63 74
59 58 58 58 59 59 59 60 60 60 60 59 60 60 60 61 63 64 65 66 66 67 67 66 66 66 69 70 70 71 71 71 72 72 72 72 72 72 72 72 71 71 71 69 68 66 65 63 63 63 62 73
63 58 57 57 57 57 57 58 58 58 58 58 58 58 59 60 62 63 64 64 65 65 65 65 65 64 66 69 69 70 70 70 71 71 71 71 71 71 71 71 71 69 69 69 67 65 64 63 62 62 65 73
64 60 57 57 57 57 56 56 57 57 57 57 58 57 59 60 64 65 67 64 66 63 63 64 63 63 64 66 68 69 69 69 70 71 71 71 71 71 71 70 70 68 68 68 66 65 63 62 61 68 70 72
63 62 59 61 59 57 56 56 56 57 58 58 60 59 60 62 66 66 67 67 65 63 66 62 62 61 62 64 66 67 67 67 69 70 70 70 70 69 69 68 66 66 66 66 65 64 62 60 68 71 71 70
63 63 62 63 63 63 60 59 58 62 61 59 63 59 63 66 67 65 65 65 60 64 64 65 60 60 62 63 65 65 66 66 67 68 68 69 69 67 67 65 69 68 64 63 63 62 60 64 68 68 68 68
63 63 63 63 62 62 60 60 61 62 62 62 61 62 64 66 66 63 64 63 60 60 61 63 59 59 60 62 63 63 63 64 64 65 67 67 67 66 64 66 67 68 66 65 61 61 62 65 64 63 64 63
63 62 62 62 62 62 62 61 61 61 60 60 60 60 63 64 65 63 66 59 58 59 66 66 62 59 59 60 61 58 63 64 63 63 64 63 62 63 63 61 59 62 63 60 60 60 60 59 58 58 57 57
60 59 60 60 60 60 61 60 60 60 60 59 58 59 61 61 63 63 65 64 64 65 66 67 67 67 67 65 63 59 62 62 64 63 62 61 59 60 60 59 58 58 59 59 57 56 55 57 57 55 54 54
57 57 57 57 57 58 59 58 57 59 58 58 58 58 58 60 61 62 64 63 62 63 65 65 66 66 66 64 63 62 60 59 60 59 58 58 57 56 57 56 54 54 55 55 55 54 53 52 51 50 50 50
56 56 55 55 54 54 55 55 54 55 56 55 56 55 55 56 59 60 61 61 62 61 62 62 63 64 64 63 62 62 60 60 59 57 56 58 58 54 53 53 53 53 53 52 51 50 49 49 48 47 47 47
55 55 54 52 53 54 51 53 52 52 53 53 54 53 54 54 57 59 59 60 59 59 60 59 60 62 63 62 61 61 61 60 58 56 54 53 54 56 55 53 51 51 51 51 50 49 48 48 48 47 46 45
53 52 52 52 51 50 49 51 51 50 52 52 52 52 52 52 53 56 57 57 57 58 57 57 58 59 60 61 61 61 60 59 58 56 55 54 54 56 55 53 51 52 52 50 50 49 49 49 49 48 46 44
50 50 50 50 49 48 48 48 49 49 50 49 49 50 49 51 51 53 53 55 56 55 55 56 56 57 58 58 60 61 59 59 59 57 56 54 54 54 53 52 51 54 53 51 50 49 48 47 46 45 43 43
48 48 48 49 49 47 47 47 47 47 47 48 48 47 47 48 49 50 51 53 54 54 55 55 56 56 57 57 58 59 58 58 57 57 54 53 53 54 52 50 50 51 50 47 47 46 44 43 43 42 42 41
48 47 46 47 47 46 47 46 46 47 48 46 46 45 44 46 47 48 50 50 52 52 53 54 55 55 56 56 57 58 57 57 57 56 55 53 53 52 52 50 48 48 46 44 43 43 43 43 41 40 40 40
48 47 46 46 46 46 45 45 46 45 46 46 45 44 44 44 45 47 47 47 51 51 52 53 53 54 54 56 58 58 57 56 56 56 56 54 54 51 50 48 47 46 45 42 42 42 40 40 39 40 39 38
47 46 47 47 46 45 45 45 44 43 44 45 45 45 44 43 44 44 45 45 48 52 53 53 52 51 52 54 56 58 59 58 56 55 55 54 53 49 49 47 46 45 41 41 41 40 38 38 37 37 37 36
46 46 46 46 45 44 44 44 44 43 43 43 44 45 44 42 42 44 44 45 45 49 51 53 52 51 51 52 55 56 57 57 56 54 52 53 52 51 47 44 43 42 40 39 37 37 38 37 37 36 36 36
47 47 46 46 44 45 44 44 43 43 43 42 42 43 43 41 42 42 43 44 45 47 48 49 49 50 51 52 54 54 54 55 55 54 52 51 51 48 46 45 42 42 39 38 36 37 36 36 36 35 35 35
47 47 46 46 45 44 45 44 43 44 44 43 42 42 42 41 41 41 41 43 45 47 46 46 47 47 48 51 52 52 53 52 52 51 50 50 49 49 47 45 42 41 41 38 37 37 36 36 35 34 35 35
47 47 47 46 45 45 44 43 44 44 44 43 42 41 41 40 41 41 41 42 43 45 45 47 47 50 47 48 49 50 51 51 51 50 49 46 46 47 48 45 43 41 40 40 38 37 37 36 36 35 35 35
48 48 49 50 47 46 46 46 44 44 43 42 42 41 40 41 41 40 41 41 43 44 45 47 50 49 48 47 47 47 47 48 48 48 48 47 45 44 43 43 42 41 39 38 38 37 37 37 36 37 36 35
49 49 48 46 49 46 46 45 43 44 42 42 41 40 40 40 40 40 40 41 42 42 43 45 45 46 47 47 46 45 43 43 44 44 45 44 44 43 43 42 41 40 40 38 37 36 36 36 36 35 36 35
45 44 46 46 42 43 45 44 43 42 42 41 39 39 39 39 39 39 38 39 40 40 40 42 43 44 44 45 45 44 43 43 43 44 44 44 43 42 42 42 43 41 41 40 40 39 38 37 37 37 38 38
44 43 41 40 40 42 42 42 42 40 41 39 38 38 38 38 38 38 37 38 39 39 38 39 41 42 41 41 42 43 44 43 42 42 43 44 44 44 41 40 41 40 42 43 41 41 41 38 37 37 38 38
43 44 43 41 41 42 41 42 43 41 40 40 39 38 37 37 37 37 36 37 39 37 36 38 39 39 41 40 40 42 42 41 40 40 40 41 41 43 43 40 40 39 39 38 38 39 37 40 39 38 36 39
43 43 43 42 42 42 42 41 42 42 42 40 39 37 37 36 36 35 35 35 36 36 35 36 36 37 39 39 39 40 39 39 37 37 37 38 40 42 39 40 38 40 38 37 39 38 38 37 36 38 39 39
43 43 43 43 42 42 42 42 42 42 41 39 38 37 36 35 35 35 34 34 34 35 35 34 35 35 36 36 37 39 39 38 36 36 36 36 37 38 37 37 38 38 37 36 37 36 37 38 38 36 36 39
42 42 41 41 41 41 41 39 37 36 35 36 36 35 36 35 34 33 33 32 33 32 34 33 33 32 31 32 33 35 36 35 37 36 34 35 36 36 37 35 38 37 38 36 35 35 38 35 33 33 36 35
40 40 40 39 38 38 38 38 37 37 36 36 35 35 34 34 33 31 30 29 29 29 31 31 30 29 28 29 31 33 33 32 31 33 32 34 34 35 35 35 36 35 37 38 36 35 35 34 36 35 34 33

ECMWFFLT2_sfc_temp_252.txt.gz
Temp
61 62 62 61 62 62 62 62 62 63 63 64 64 64 63 63 64 64 65 66 67 66 65 65 65 65 65 66 67 68 69 69 70 70 70 71 71 72 72 72 72 72 72 70 69 68 67 66 64 63 62 65
60 62 62 61 61 62 62 62 62 62 63 63 63 63 62 63 64 64 65 65 66 66 65 65 65 64 64 65 67 67 67 68 68 69 69 69 70 70 71 70 71 70 70 70 68 67 66 65 64 63 62 64
61 61 62 61 61 61 62 61 62 62 62 62 62 62 62 62 63 63 63 64 65 64 65 64 64 63 64 65 66 66 66 66 67 68 68 68 68 69 69 68 69 68 69 69 67 66 65 64 63 62 62 64
61 61 61 60 59 60 61 61 62 61 61 61 61 61 61 62 63 64 64 66 64 64 63 64 63 62 63 65 66 66 66 66 66 67 67 67 67 68 68 68 68 66 67 67 65 65 64 63 61 62 63 64
61 62 61 62 62 61 62 61 61 61 61 60 59 59 60 62 62 62 62 63 62 63 62 63 62 61 62 65 66 66 65 65 65 66 66 66 66 65 66 65 65 65 64 64 64 64 63 61 62 63 63 64
61 60 61 60 60 60 60 60 60 59 58 58 57 58 58 59 60 60 62 64 62 61 61 62 62 61 62 65 66 65 65 65 65 65 65 64 64 63 63 63 64 64 63 62 63 62 61 61 63 63 62 60
59 59 59 59 58 58 59 58 57 57 57 57 56 55 56 57 58 59 61 63 60 60 61 63 61 61 62 63 64 64 65 64 63 64 63 63 62 60 60 60 61 63 63 62 61 60 60 60 56 55 56 55
57 57 57 57 56 56 57 56 56 56 57 56 55 54 55 55 57 59 61 60 59 59 62 62 61 60 61 62 62 61 63 63 62 61 61 61 60 58 57 56 56 58 58 57 56 55 54 53 52 52 51 51
55 55 55 54 54 55 55 54 55 55 55 55 54 54 53 53 54 57 59 59 59 59 61 61 60 60 62 63 62 60 61 61 60 60 58 58 58 57 56 55 54 54 54 53 53 52 51 50 50 49 49 49
54 55 53 53 53 54 53 53 53 53 53 53 53 53 52 52 53 55 56 56 57 57 59 59 59 60 61 61 61 61 60 60 60 58 57 57 57 56 56 55 54 53 52 51 51 50 50 49 48 47 47 47
53 52 53 53 53 52 50 52 51 50 51 52 53 51 50 49 51 51 53 54 54 55 57 57 58 59 59 59 59 60 59 58 59 58 56 56 56 55 54 54 53 52 51 51 50 49 49 47 46 45 45 45
52 52 52 52 52 52 51 51 50 50 51 51 51 50 49 49 49 50 50 51 51 53 56 56 57 58 58 58 59 59 58 57 58 57 55 55 55 53 52 52 52 50 49 48 48 47 46 46 45 44 44 44
51 51 51 51 51 50 50 50 50 50 50 50 49 49 48 48 47 48 49 48 49 51 53 55 56 56 56 56 57 58 57 57 56 56 54 54 54 53 50 49 49 48 47 46 46 45 44 44 44 43 43 42
50 50 50 50 50 49 49 49 49 49 49 49 49 48 47 47 47 46 47 47 48 49 50 54 55 55 54 54 55 57 56 56 56 55 54 53 53 52 50 48 48 47 46 45 44 43 43 43 42 42 41 41
50 50 49 49 49 48 48 49 49 48 48 47 48 48 46 46 46 46 47 46 47 48 50 52 53 53 53 53 54 56 56 56 56 56 54 53 52 52 50 48 48 47 45 44 44 43 42 42 42 41 41 40
48 48 48 49 48 47 47 48 47 47 47 46 46 47 46 45 46 46 46 46 46 47 50 51 51 51 50 50 52 54 54 55 56 55 54 53 52 52 51 49 48 47 45 43 42 42 41 41 40 40 40 39
48 48 48 47 47 46 47 46 46 46 46 45 46 46 46 45 45 46 45 45 46 47 49 49 50 50 50 50 51 53 54 54 54 54 54 53 51 50 49 47 47 46 44 42 42 41 41 40 40 40 39 38
47 48 48 48 48 47 46 45 44 45 46 45 45 45 45 44 44 44 45 45 45 47 48 48 50 49 49 50 50 52 52 51 52 52 52 50 51 49 48 46 45 44 43 43 42 41 41 40 39 39 38 38
47 46 46 46 47 47 45 44 43 42 44 42 42 42 42 43 43 42 42 43 43 45 47 47 48 48 48 49 50 50 50 49 50 50 50 48 47 49 48 47 45 44 43 42 41 40 40 39 39 39 38 38
47 46 46 45 46 45 44 42 42 41 42 42 41 41 40 41 41 41 41 41 42 42 43 44 45 46 47 48 49 48 49 48 47 48 48 48 47 45 46 46 45 44 43 42 41 41 40 40 39 38 37 38
47 46 45 45 44 44 41 42 40 40 41 41 40 40 39 40 40 40 40 41 41 41 41 42 43 44 45 47 47 47 47 46 46 46 46 47 47 46 44 44 44 44 43 42 41 41 40 40 40 38 38 37
45 45 45 46 47 44 42 41 41 40 40 39 39 39 38 39 39 39 38 39 40 39 40 41 42 45 44 45 46 45 45 45 45 45 46 45 46 46 44 43 42 42 42 42 41 41 39 40 40 38 37 37
45 46 46 46 46 43 42 42 40 40 38 38 38 37 38 38 38 37 37 37 38 38 38 39 40 41 42 44 44 44 43 43 43 42 43 44 45 46 44 43 43 42 42 42 40 40 39 38 37 36 36 37
43 44 42 41 42 41 41 41 39 40 37 38 36 37 37 36 36 36 36 36 37 37 36 37 38 39 40 42 43 42 41 41 40 40 40 41 43 44 44 43 42 41 40 40 40 37 36 36 35 35 37 36
40 39 39 40 39 38 39 39 39 38 37 37 35 36 36 35 35 35 35 35 35 35 35 35 36 37 37 38 39 40 40 40 40 40 40 40 41 41 42 41 41 41 41 39 37 37 35 34 35 37 36 36
40 39 38 37 37 38 37 36 35 34 36 36 37 35 34 33 33 33 33 33 33 34 33 32 33 34 34 36 36 37 38 38 38 38 37 38 37 39 40 39 41 40 39 33 32 31 32 33 33 35 35 34
39 39 39 38 38 38 37 39 38 37 38 38 36 34 33 32 31 31 30 30 30 31 31 29 29 30 32 33 35 35 34 34 34 34 34 35 35 34 38 38 41 39 39 32 32 33 33 30 29 34 33 33
40 40 40 41 41 41 39 37 40 40 39 37 35 32 32 31 30 29 28 28 27 28 28 27 27 28 29 30 33 33 31 31 31 31 31 32 34 36 32 34 35 39 37 34 31 29 28 27 32 32 30 32
40 40 40 39 39 39 38 38 37 35 33 33 34 32 31 30 29 29 27 26 26 26 26 27 26 26 27 28 30 31 29 28 29 30 30 31 31 32 32 31 34 36 37 35 35 31 30 30 33 31 31 32
38 38 37 37 36 34 35 32 31 30 30 31 30 30 31 31 30 28 27 26 25 25 26 26 26 26 26 26 28 29 28 28 28 29 28 29 29 29 32 32 33 33 35 35 35 34 34 33 30 29 31 32
36 37 37 37 36 35 33 31 31 32 32 31 30 30 30 30 30 29 27 25 24 24 25 26 25 26 26 26 26 28 27 27 27 27 28 28 27 27 30 32 30 31 32 34 34 34 34 34 34 33 31 29

ECMWFFLT2_sfc_temp_258.txt.gz
Temp
60 61 61 61 61 61 61 61 60 60 60 60 59 59 59 59 60 60 62 62 62 63 64 63 63 63 64 65 66 66 66 66 66 66 67 67 67 67 67 67 66 66 67 67 67 66 65 64 63 62 62 63
58 58 59 59 59 59 59 59 58 58 58 57 57 57 57 57 57 58 60 60 61 61 62 62 62 62 63 64 65 65 65 65 65 65 65 65 65 65 64 65 64 63 64 63 64 64 64 63 62 61 61 63
55 57 57 57 57 57 57 57 57 56 56 55 55 55 55 55 55 56 57 59 59 60 60 60 60 60 62 64 64 64 64 64 64 64 64 63 63 62 62 62 61 61 61 61 61 61 61 61 60 59 58 56
52 54 55 55 55 55 55 55 55 54 54 53 53 53 53 53 52 53 53 57 56 58 58 59 59 59 61 62 63 63 62 62 63 63 62 62 61 61 60 59 59 58 58 58 58 58 58 57 56 54 54 54
51 52 53 52 53 54 53 53 53 53 52 51 50 51 51 51 49 49 51 53 53 55 56 58 58 58 59 61 62 62 61 61 61 61 61 61 60 58 58 57 56 56 56 56 55 55 54 54 52 52 51 51
50 50 51 49 49 49 50 51 52 50 49 50 47 49 48 48 49 49 51 52 53 53 55 57 57 57 58 60 60 61 61 60 60 60 59 59 58 56 55 54 51 52 53 53 53 53 52 50 50 50 49 49
49 49 48 48 48 49 50 50 50 49 49 47 47 46 47 48 48 48 49 50 51 52 54 56 56 56 57 57 58 59 60 59 58 58 58 57 56 55 53 50 49 50 49 49 51 50 48 48 48 48 48 47
48 47 47 47 47 48 48 48 49 48 48 47 46 45 46 47 47 47 48 50 51 51 52 54 55 55 55 56 56 57 57 58 57 56 56 55 54 52 51 49 47 47 47 47 47 47 46 46 46 46 46 46
47 47 47 47 47 46 46 47 47 47 47 46 46 45 45 46 45 45 47 48 49 50 51 53 53 54 54 54 54 55 55 56 55 55 53 52 51 50 49 48 47 46 46 46 45 45 45 45 45 44 44 44
47 47 45 46 46 46 45 45 45 45 45 45 45 44 44 45 44 44 46 47 47 49 50 52 52 52 52 52 52 54 54 54 54 53 53 51 50 49 49 47 46 46 45 44 44 43 43 43 43 42 42 42
45 44 45 45 46 44 44 43 43 43 44 43 43 43 44 43 42 42 44 45 45 46 49 50 51 51 51 51 51 52 53 52 54 52 52 51 49 49 48 47 46 45 44 44 43 43 43 42 42 41 41 41
43 43 44 45 44 43 45 43 41 42 42 42 42 42 42 43 41 41 42 43 44 45 48 49 50 50 50 50 50 52 52 51 52 52 51 50 49 48 47 46 45 44 44 43 43 42 42 41 41 41 40 41
42 42 43 42 42 41 44 41 41 41 41 40 41 41 41 41 39 40 40 41 43 45 46 48 49 49 49 49 49 50 50 50 50 50 50 50 49 48 47 46 45 44 43 42 42 41 41 41 41 40 40 40
41 41 41 41 40 40 41 40 40 40 39 39 39 39 39 39 39 38 38 39 40 41 43 45 46 47 48 48 49 49 48 49 50 49 49 49 48 48 47 45 44 44 43 42 41 41 40 40 40 39 39 38
41 41 40 40 39 40 39 39 39 38 38 38 37 37 37 38 38 38 37 37 38 39 40 42 43 44 46 47 47 48 47 49 48 49 48 48 48 47 46 45 45 44 42 42 41 41 40 40 40 39 39 38
39 39 39 40 39 39 38 39 37 37 36 37 36 36 36 36 36 37 36 36 36 37 38 39 41 43 43 44 46 47 47 47 48 48 48 48 48 48 47 46 45 44 43 41 41 41 40 40 39 38 38 38
38 38 39 39 38 38 38 36 36 35 35 35 35 35 35 35 35 35 34 35 35 36 36 37 38 40 43 45 44 46 46 46 46 47 48 47 48 47 46 46 45 44 43 41 41 41 40 40 39 39 38 37
37 37 40 39 37 37 36 35 35 34 34 34 34 34 33 33 34 34 34 34 34 35 35 36 37 39 40 43 45 45 45 44 44 44 45 46 46 45 45 44 44 43 42 41 41 40 40 39 39 39 38 37
38 38 38 36 36 36 35 35 34 33 33 32 32 32 32 32 33 32 32 33 33 33 33 33 35 37 38 40 44 44 44 42 42 42 42 44 44 44 44 43 43 42 41 41 40 40 40 39 39 38 37 37
37 37 37 37 38 35 34 34 33 32 32 31 31 31 30 31 31 31 30 31 31 31 32 32 32 34 36 38 40 41 41 41 39 40 40 42 43 42 41 41 41 42 41 41 39 40 39 39 39 37 37 36
37 37 37 35 35 34 34 33 32 31 31 31 30 30 29 29 30 29 29 30 30 30 30 30 31 32 33 35 36 37 38 38 38 38 38 40 42 42 40 39 38 38 39 40 40 39 38 38 37 36 36 36
37 37 36 34 34 35 33 32 31 31 30 29 29 29 28 28 28 28 28 28 29 28 30 29 29 30 31 33 33 33 35 35 36 36 36 36 39 40 40 37 35 35 37 39 39 38 38 37 36 35 33 33
36 35 34 34 34 33 32 31 31 30 30 29 29 28 27 27 27 27 27 27 28 27 27 27 28 28 29 31 31 32 33 33 33 33 34 34 36 39 40 36 35 35 36 37 37 36 35 35 33 32 31 30
34 34 34 34 33 32 32 31 30 30 28 29 28 28 27 27 26 26 27 27 27 26 27 26 27 27 28 30 31 31 30 31 31 30 31 32 34 35 37 38 36 35 33 35 36 36 36 35 34 31 30 29
32 32 32 30 31 29 30 31 30 29 28 28 28 27 27 26 26 26 26 27 27 26 27 26 26 26 27 29 30 29 29 30 30 30 30 30 33 33 34 36 37 35 33 32 33 36 36 34 34 33 31 28
31 31 32 32 31 30 28 27 27 27 27 28 28 27 27 26 26 25 25 27 27 27 26 25 25 26 27 28 29 29 30 29 29 28 28 29 28 32 32 33 36 35 34 31 30 31 33 33 32 32 32 30
29 30 32 31 31 30 29 30 30 28 29 28 27 27 27 26 25 25 25 26 27 26 25 24 25 25 26 27 28 28 28 28 27 27 26 27 26 27 31 32 35 34 34 28 31 31 32 31 31 32 30 31
30 31 31 31 31 31 31 30 31 29 28 28 27 26 27 26 25 24 24 25 26 26 25 24 24 24 25 26 27 27 26 26 25 25 25 25 26 28 26 29 31 34 32 31 30 27 28 28 30 30 29 31
30 31 30 31 31 31 32 32 30 28 26 27 28 27 26 25 25 24 23 24 24 25 24 23 23 23 24 24 25 25 24 24 24 25 25 25 25 25 25 26 29 31 31 31 32 29 29 28 28 27 29 31
29 30 30 32 34 32 31 28 27 25 24 24 25 25 26 26 25 23 23 22 22 23 23 22 22 22 22 22 23 23 22 22 23 23 23 23 23 23 25 24 26 25 28 29 30 31 31 29 26 26 29 30
30 31 33 33 32 31 29 27 27 26 26 25 25 26 25 24 24 23 21 21 22 22 22 21 21 21 21 21 22 22 22 21 20 21 22 23 22 22 23 24 23 23 22 26 28 28 30 30 30 30 28 26